Weather History for Michigan City, IN

Change the Weather History Date:

Friday, April 5, 2013

  Actual Average (KVPZ) Record (KVPZ)
Temperature  
Mean Temperature 38 °F 45 °F  
Max Temperature 44 °F 55 °F 75 °F (2005)
Min Temperature 32 °F 35 °F 24 °F (2007)
Degree Days  
Heating Degree Days 27 20  
Month to date heating degree days 103  
Since 1 July heating degree days 5680  
Cooling Degree Days 0 0  
Month to date cooling degree days 0  
Year to date cooling degree days 0  
Moisture  
Dew Point 27 °F    
Average Humidity 67    
Maximum Humidity 93    
Minimum Humidity 36    
Precipitation  
Precipitation 0.00 in 0.09 in 1.68 in (2007)
Month to date precipitation 0.46  
Year to date precipitation 6.11  
Sea Level Pressure  
Sea Level Pressure 30.14 in    
Wind  
Wind Speed 9 mph (North)    
Max Wind Speed 17 mph    
Max Gust Speed 23 mph    
Visibility 10 miles    
Events      
T = Trace of Precipitation, MM = Missing Value Source: NWS Daily Summary

Daily Weather History Graph

Daily Weather History Graph

Search for Another Location

Airport:

Trip Planner

Search our weather history database for the weather conditions in past years. The results will help you decide how hot, cold, wet, or windy it might be!

Date:

Astronomy

Apr. 05, 2013 Rise Set
Actual Time 6:23 AM CDT 7:17 PM CDT
Civil Twilight 5:54 AM CDT 7:45 PM CDT
Nautical Twilight 5:21 AM CDT 8:19 PM CDT
Astronomical Twilight 4:46 AM CDT 8:54 PM CDT
Moon 3:33 AM CDT (4/5) 2:37 PM CDT (4/5)
Length of Visible Light 13h 50m
Length of Day
12h 54m
Waning Crescent, 23% of the Moon is Illuminated
Apr 5
Waning Crescent
Apr 10
New
Apr 18
First Quarter
Apr 25
Full
May 2
Last Quarter

Hourly Weather History & Observations

Time (CDT) Temp. Windchill Dew Point Humidity Pressure Visibility Wind Dir Wind Speed Gust Speed Precip Events Conditions
12:15 AM 44.6 °F 39.7 °F 30.2 °F 57% 29.98 in 10.0 mi NW 9.2 mph - N/A   Scattered Clouds
12:35 AM 44.6 °F 39.2 °F 32.0 °F 61% 29.99 in 10.0 mi North 10.4 mph 16.1 mph N/A   Mostly Cloudy
12:55 AM 44.6 °F 39.7 °F 32.0 °F 61% 29.99 in 10.0 mi North 9.2 mph - N/A   Overcast
1:15 AM 44.6 °F 40.2 °F 32.0 °F 61% 30.00 in 10.0 mi North 8.1 mph - N/A   Overcast
1:35 AM 42.8 °F 38.0 °F 32.0 °F 66% 30.00 in 10.0 mi North 8.1 mph - N/A   Overcast
1:55 AM 42.8 °F 38.6 °F 32.0 °F 66% 30.00 in 10.0 mi North 6.9 mph - N/A   Overcast
2:15 AM 41.0 °F 37.1 °F 30.2 °F 65% 30.00 in 10.0 mi North 5.8 mph - N/A   Mostly Cloudy
2:35 AM 41.0 °F 37.1 °F 32.0 °F 70% 30.01 in 10.0 mi North 5.8 mph - N/A   Scattered Clouds
2:55 AM 39.2 °F 35.9 °F 32.0 °F 75% 30.01 in 10.0 mi NNW 4.6 mph - N/A   Clear
3:15 AM 37.4 °F 33.8 °F 32.0 °F 81% 30.02 in 10.0 mi North 4.6 mph - N/A   Clear
3:35 AM 37.4 °F 33.8 °F 32.0 °F 81% 30.02 in 10.0 mi North 4.6 mph - N/A   Clear
3:55 AM 35.6 °F 30.7 °F 32.0 °F 87% 30.03 in 10.0 mi NNW 5.8 mph - N/A   Clear
4:15 AM 35.6 °F 30.7 °F 32.0 °F 87% 30.03 in 10.0 mi NNW 5.8 mph - N/A   Clear
4:35 AM 35.6 °F 30.7 °F 32.0 °F 87% 30.04 in 10.0 mi North 5.8 mph - N/A   Clear
4:55 AM 35.6 °F 29.9 °F 33.8 °F 93% 30.05 in 10.0 mi North 6.9 mph - N/A   Clear
5:15 AM 35.6 °F 28.6 °F 33.8 °F 93% 30.07 in 7.0 mi North 9.2 mph - N/A   Clear
5:35 AM 35.6 °F 27.5 °F 32.0 °F 87% 30.07 in 7.0 mi NNE 11.5 mph - N/A   Clear
5:55 AM 35.6 °F 30.7 °F 32.0 °F 87% 30.08 in 7.0 mi NNE 5.8 mph - N/A   Clear
6:15 AM 35.6 °F 29.9 °F 32.0 °F 87% 30.10 in 7.0 mi NNE 6.9 mph - N/A   Clear
6:35 AM 35.6 °F 29.9 °F 32.0 °F 87% 30.11 in 7.0 mi NNE 6.9 mph - N/A   Clear
6:55 AM 35.6 °F 28.0 °F 28.4 °F 75% 30.13 in 10.0 mi NE 10.4 mph - N/A   Clear
7:15 AM 35.6 °F 30.7 °F 28.4 °F 75% 30.13 in 10.0 mi NE 5.8 mph 9.2 mph N/A   Clear
7:35 AM 37.4 °F 30.8 °F 26.6 °F 65% 30.14 in 10.0 mi NE 9.2 mph - N/A   Clear
7:55 AM 37.4 °F 30.8 °F 26.6 °F 65% 30.15 in 10.0 mi NNE 9.2 mph - N/A   Clear
8:15 AM 37.4 °F 30.3 °F 24.8 °F 60% 30.16 in 10.0 mi NE 10.4 mph 16.1 mph N/A   Clear
8:35 AM 41.0 °F 34.7 °F 23.0 °F 49% 30.17 in 10.0 mi NE 10.4 mph - N/A   Clear
8:55 AM 41.0 °F 35.2 °F 23.0 °F 49% 30.17 in 10.0 mi NE 9.2 mph - N/A   Clear
9:15 AM 41.0 °F 35.8 °F 26.6 °F 57% 30.17 in 10.0 mi North 8.1 mph - N/A   Clear
9:35 AM 42.8 °F 37.5 °F 28.4 °F 57% 30.18 in 10.0 mi North 9.2 mph - N/A   Clear
9:55 AM 41.0 °F 35.2 °F 28.4 °F 61% 30.19 in 10.0 mi North 9.2 mph 16.1 mph N/A   Clear
10:15 AM 42.8 °F 36.2 °F 26.6 °F 53% 30.19 in 10.0 mi North 12.7 mph 16.1 mph N/A   Clear
10:35 AM 41.0 °F 33.9 °F 26.6 °F 57% 30.20 in 10.0 mi North 12.7 mph 19.6 mph N/A   Clear
10:55 AM 42.8 °F 36.2 °F 24.8 °F 49% 30.20 in 10.0 mi NNE 12.7 mph - N/A   Clear
11:15 AM 42.8 °F 35.4 °F 23.0 °F 46% 30.21 in 10.0 mi North 15.0 mph 18.4 mph N/A   Clear
11:35 AM 42.8 °F 35.1 °F 23.0 °F 46% 30.21 in 10.0 mi North 16.1 mph 19.6 mph N/A   Clear
11:55 AM 41.0 °F 33.1 °F 23.0 °F 49% 30.21 in 10.0 mi North 15.0 mph 21.9 mph N/A   Clear
12:15 PM 42.8 °F 36.6 °F 23.0 °F 46% 30.22 in 10.0 mi North 11.5 mph 20.7 mph N/A   Clear
12:35 PM 41.0 °F 33.1 °F 21.2 °F 45% 30.22 in 10.0 mi North 15.0 mph - N/A   Clear
12:55 PM 41.0 °F 33.5 °F 21.2 °F 45% 30.21 in 10.0 mi North 13.8 mph 23.0 mph N/A   Clear
1:15 PM 41.0 °F 33.1 °F 19.4 °F 42% 30.20 in 10.0 mi North 15.0 mph 21.9 mph N/A   Clear
1:35 PM 42.8 °F 35.8 °F 17.6 °F 36% 30.20 in 10.0 mi North 13.8 mph 17.3 mph N/A   Clear
1:55 PM 41.0 °F 33.1 °F 17.6 °F 39% 30.20 in 10.0 mi North 15.0 mph 21.9 mph N/A   Clear
2:15 PM 41.0 °F 33.9 °F 17.6 °F 39% 30.19 in 10.0 mi North 12.7 mph 20.7 mph N/A   Clear
2:35 PM 41.0 °F 33.5 °F 19.4 °F 42% 30.19 in 10.0 mi North 13.8 mph 19.6 mph N/A   Clear
2:55 PM 41.0 °F 32.5 °F 21.2 °F 45% 30.18 in 10.0 mi North 17.3 mph 21.9 mph N/A   Clear
3:15 PM 39.2 °F 30.8 °F 23.0 °F 52% 30.18 in 10.0 mi North 15.0 mph 20.7 mph N/A   Clear
3:35 PM 37.4 °F 28.9 °F 23.0 °F 56% 30.17 in 10.0 mi North 13.8 mph 21.9 mph N/A   Clear
3:55 PM 37.4 °F 28.2 °F 24.8 °F 60% 30.18 in 10.0 mi North 16.1 mph 20.7 mph N/A   Clear
4:15 PM 37.4 °F 29.3 °F 24.8 °F 60% 30.18 in 10.0 mi North 12.7 mph - N/A   Clear
4:55 PM 37.4 °F 29.8 °F 23.0 °F 56% 30.19 in 10.0 mi North 11.5 mph 18.4 mph N/A   Clear
5:15 PM 37.4 °F 28.2 °F 23.0 °F 56% 30.19 in 10.0 mi North 16.1 mph 19.6 mph N/A   Clear
5:35 PM 35.6 °F 26.6 °F 24.8 °F 65% 30.19 in 10.0 mi North 13.8 mph 18.4 mph N/A   Clear
5:55 PM 35.6 °F 26.6 °F 24.8 °F 65% 30.20 in 10.0 mi North 13.8 mph 17.3 mph N/A   Clear
6:15 PM 33.8 °F 25.8 °F 23.0 °F 65% 30.20 in 10.0 mi North 10.4 mph 19.6 mph N/A   Clear
6:35 PM 33.8 °F 26.4 °F 26.6 °F 75% 30.20 in 10.0 mi North 9.2 mph 17.3 mph N/A   Clear
6:55 PM 33.8 °F 27.0 °F 26.6 °F 75% 30.19 in 10.0 mi North 8.1 mph - N/A   Clear
7:15 PM 32.0 °F 24.2 °F 26.6 °F 80% 30.20 in 10.0 mi North 9.2 mph - N/A   Clear
7:35 PM 32.0 °F 26.4 °F 26.6 °F 80% 30.21 in 10.0 mi North 5.8 mph - N/A   Clear
7:55 PM 32.0 °F 25.6 °F 26.6 °F 80% 30.20 in 10.0 mi North 6.9 mph - N/A   Clear
8:15 PM 33.8 °F 27.7 °F 26.6 °F 75% 30.20 in 10.0 mi NE 6.9 mph - N/A   Clear
8:35 PM 33.8 °F 29.6 °F 26.6 °F 75% 30.21 in 10.0 mi North 4.6 mph - N/A   Clear
8:55 PM 33.8 °F 27.7 °F 28.4 °F 81% 30.21 in 10.0 mi NE 6.9 mph - N/A   Mostly Cloudy
9:15 PM 32.0 °F - 28.4 °F 87% 30.21 in 10.0 mi Calm Calm - N/A   Overcast
9:35 PM 32.0 °F - 28.4 °F 87% 30.20 in 10.0 mi Calm Calm - N/A   Mostly Cloudy
9:55 PM 32.0 °F - 28.4 °F 87% 30.19 in 10.0 mi Calm Calm - N/A   Mostly Cloudy
10:15 PM 32.0 °F - 28.4 °F 87% 30.18 in 10.0 mi Calm Calm - N/A   Mostly Cloudy
10:35 PM 32.0 °F - 28.4 °F 87% 30.18 in 10.0 mi Calm Calm - N/A   Overcast
10:55 PM 32.0 °F 28.7 °F 28.4 °F 87% 30.17 in 10.0 mi ENE 3.5 mph - N/A   Overcast
11:15 PM 33.8 °F 30.8 °F 28.4 °F 81% 30.15 in 10.0 mi East 3.5 mph - N/A   Overcast
11:35 PM 33.8 °F 30.8 °F 28.4 °F 81% 30.15 in 10.0 mi East 3.5 mph - N/A   Overcast
11:55 PM 33.8 °F 30.8 °F 26.6 °F 75% 30.14 in 10.0 mi East 3.5 mph - N/A   Overcast